Location: Theydon Bois
(51.6750°N, 0.1050°E)
Time: 00:02:21
(UTC+00:00)

Envisat - Pass Details

Date: 16 December 2019
Orbit: 764 x 766 km, 98.1° (Epoch: 21 January)

Event Time Altitude Azimuth Distance (km) Brightness Sun altitude
Rises 17:14:53 0° 151° (SSE) 3,224 6.2 -12.2°
Reaches altitude 10° 17:17:13 10° 147° (SSE) 2,302 5.4 -12.5°
Maximum altitude 17:22:11 58° 70° (ENE) 894 3.0 -13.2°
Drops below altitude 10° 17:27:11 10° 352° (N) 2,317 5.4 -14.0°
Sets 17:29:32 0° 349° (NNW) 3,248 6.2 -14.3°
